Location: Poughquag
(41.6090°N, 73.6820°W)
Time: 07:40:03
(UTC-04:00)

Vanguard 2 - Visible Passes

Search period start: 29 May 2020 00:00
Search period end: 08 June 2020 00:00
Orbit: 553 x 2938 km, 32.9° (Epoch: 29 May)

Date Brightness Start Highest point End Pass type
(mag) Time Alt. Az. Time Alt. Az. Time Alt. Az.
29 May 8.8 21:41:49 10° WSW 21:50:41 41° S 21:54:48 19° ESE visible
29 May 9.4 23:53:01 10° WSW 23:56:12 22° WSW 23:56:12 22° WSW visible
30 May 8.7 21:59:38 10° WSW 22:08:26 43° S 22:11:47 24° SE visible
31 May 9.7 00:11:07 10° WSW 00:13:12 17° WSW 00:13:12 17° WSW visible
31 May 8.7 22:17:33 10° WSW 22:26:10 42° S 22:28:43 29° SE visible
01 Jun 10.0 00:29:26 10° WSW 00:30:08 12° WSW 00:30:08 12° WSW visible
01 Jun 8.6 22:35:31 10° W 22:43:50 39° SSW 22:45:36 33° SSE visible
02 Jun 9.3 20:41:17 10° WSW 20:52:55 49° S 20:59:57 10° ESE visible
02 Jun 8.7 22:53:35 10° W 23:01:25 34° SSW 23:02:27 33° S visible
03 Jun 9.2 20:59:11 10° WSW 21:10:41 50° S 21:17:38 10° ESE visible
03 Jun 9.1 23:11:44 10° W 23:18:56 29° SSW 23:19:16 28° SSW visible
04 Jun 9.2 21:17:10 10° W 21:28:25 48° SSW 21:34:40 13° ESE visible
04 Jun 9.5 23:30:05 10° W 23:36:04 23° SW 23:36:04 23° SW visible
05 Jun 9.3 21:35:12 10° W 21:46:05 44° SSW 21:51:27 17° SE visible
05 Jun 9.9 23:48:46 10° WSW 23:52:51 17° SW 23:52:51 17° SW visible
06 Jun 9.4 21:53:19 10° W 22:03:40 39° SSW 22:08:13 20° SSE visible
07 Jun 10.3 00:08:27 10° WSW 00:09:37 11° SW 00:09:37 11° SW visible
07 Jun 9.4 22:11:32 10° W 22:21:08 33° SSW 22:24:58 22° SSE visible
